Location: Ar Ranvel
(48.3000°N, 4.8833°W)
Time: 16:48:43
(UTC+00:00)

Cosmos 389 Rocket - Pass Details

Date: 16 June 2021
Orbit: 440 x 471 km, 81.1° (Epoch: 30 July)

Event Time Altitude Azimuth Distance (km) Brightness Sun altitude
Rises 23:30:36 0° 342° (NNW) 2,445 7.9 -17.5°
Reaches altitude 10° 23:32:43 10° 336° (NNW) 1,571 6.4 -17.5°
Maximum altitude 23:35:59 43° 264° (W) 640 3.1 -17.6°
Enters shadow 23:36:49 35° 225° (SW) 739 3.2 -17.7°
